User: anonymous   Login
Location: Montr�al
(45.5000°N, 73.5830°W)
Time: 06:20:53
(UTC-04:00)
Language:

Cosmos 1151 Rocket - Orbit

View from above orbital plane
View from above orbital plane
View from above satellite
View from above satellite

Ground track
Ground track

The orbit data is extracted from the following two-line orbital elements,

1 11672U 80005B   15213.84217449  .00000270  00000-0  26862-4 0  9998
2 11672 082.5159 006.1367 0018338 073.6354 286.6878 14.87635058921490
Epoch (UTC): 01 August 2015 20:12:43
Eccentricity: 0.0018338
inclination: 82.5159°
perigee height: 592 km
apogee height: 618 km
right ascension of ascending node: 6.1367°
argument of perigee: 73.6354°
revolutions per day: 14.87635058
mean anomaly at epoch: 286.6878°
orbit number at epoch: 92149

The dashed part of the orbit path shows where the satellite is in the earth's shadow,  

DLR